#datetime,building,power
2023-04-27T00:00:00,sdl,5.63
2023-04-27T00:01:00,sdl,5.65
2023-04-27T00:02:00,sdl,5.76
2023-04-27T00:03:00,sdl,5.61
2023-04-27T00:04:00,sdl,5.63
2023-04-27T00:05:00,sdl,5.65
2023-04-27T00:06:00,sdl,3.34
2023-04-27T00:07:00,sdl,3.46
2023-04-27T00:08:00,sdl,3.41
2023-04-27T00:09:00,sdl,3.42
2023-04-27T00:10:00,sdl,3.40
2023-04-27T00:11:00,sdl,3.67
2023-04-27T00:12:00,sdl,3.48
2023-04-27T00:13:00,sdl,3.46
2023-04-27T00:14:00,sdl,3.48
2023-04-27T00:15:00,sdl,3.47
2023-04-27T00:16:00,sdl,4.26
2023-04-27T00:17:00,sdl,3.94
2023-04-27T00:18:00,sdl,4.00
2023-04-27T00:19:00,sdl,5.05
2023-04-27T00:20:00,sdl,3.10
2023-04-27T00:21:00,sdl,3.11
2023-04-27T00:22:00,sdl,3.54
2023-04-27T00:23:00,sdl,3.67
2023-04-27T00:24:00,sdl,3.47
2023-04-27T00:25:00,sdl,3.66
2023-04-27T00:26:00,sdl,3.02
2023-04-27T00:27:00,sdl,3.13
2023-04-27T00:28:00,sdl,3.16
2023-04-27T00:29:00,sdl,3.15
2023-04-27T00:30:00,sdl,5.35
2023-04-27T00:31:00,sdl,5.34
2023-04-27T00:32:00,sdl,5.38
2023-04-27T00:33:00,sdl,5.21
2023-04-27T00:34:00,sdl,5.24
2023-04-27T00:35:00,sdl,5.26
2023-04-27T00:36:00,sdl,5.44
2023-04-27T00:37:00,sdl,5.20
2023-04-27T00:38:00,sdl,5.19
2023-04-27T00:39:00,sdl,5.22
2023-04-27T00:40:00,sdl,5.08
2023-04-27T00:41:00,sdl,5.02
2023-04-27T00:42:00,sdl,5.00
2023-04-27T00:43:00,sdl,5.06
2023-04-27T00:44:00,sdl,5.05
2023-04-27T00:45:00,sdl,5.10
2023-04-27T00:46:00,sdl,4.97
2023-04-27T00:47:00,sdl,3.76
2023-04-27T00:48:00,sdl,3.88
2023-04-27T00:49:00,sdl,3.63
2023-04-27T00:50:00,sdl,3.67
2023-04-27T00:51:00,sdl,2.90
2023-04-27T00:52:00,sdl,2.90
2023-04-27T00:53:00,sdl,2.97
2023-04-27T00:54:00,sdl,3.06
2023-04-27T00:55:00,sdl,3.26
2023-04-27T00:56:00,sdl,3.29
2023-04-27T00:57:00,sdl,3.29
2023-04-27T00:58:00,sdl,3.29
2023-04-27T00:59:00,sdl,3.58
2023-04-27T01:00:00,sdl,3.56
2023-04-27T01:01:00,sdl,3.34
2023-04-27T01:02:00,sdl,3.10
2023-04-27T01:03:00,sdl,3.13
2023-04-27T01:04:00,sdl,3.13
2023-04-27T01:05:00,sdl,3.04
2023-04-27T01:06:00,sdl,3.11
2023-04-27T01:07:00,sdl,3.13
2023-04-27T01:08:00,sdl,3.10
2023-04-27T01:09:00,sdl,3.14
2023-04-27T01:10:00,sdl,3.13
2023-04-27T01:11:00,sdl,3.14
2023-04-27T01:12:00,sdl,3.14
2023-04-27T01:13:00,sdl,3.19
2023-04-27T01:14:00,sdl,3.06
2023-04-27T01:15:00,sdl,3.04
2023-04-27T01:16:00,sdl,3.07
2023-04-27T01:17:00,sdl,2.94
2023-04-27T01:18:00,sdl,2.93
2023-04-27T01:19:00,sdl,3.03
2023-04-27T01:20:00,sdl,3.79
2023-04-27T01:21:00,sdl,4.53
2023-04-27T01:22:00,sdl,3.96
2023-04-27T01:23:00,sdl,3.13
2023-04-27T01:24:00,sdl,5.28
2023-04-27T01:25:00,sdl,5.41
2023-04-27T01:26:00,sdl,6.05
2023-04-27T01:27:00,sdl,5.16
2023-04-27T01:28:00,sdl,5.18
2023-04-27T01:29:00,sdl,5.17
2023-04-27T01:30:00,sdl,5.21
2023-04-27T01:31:00,sdl,5.19
2023-04-27T01:32:00,sdl,5.20
2023-04-27T01:33:00,sdl,5.20
2023-04-27T01:34:00,sdl,5.22
2023-04-27T01:35:00,sdl,5.28
2023-04-27T01:36:00,sdl,5.75
2023-04-27T01:37:00,sdl,5.67
2023-04-27T01:38:00,sdl,3.92
2023-04-27T01:39:00,sdl,3.02
2023-04-27T01:40:00,sdl,2.96
2023-04-27T01:41:00,sdl,2.99
2023-04-27T01:42:00,sdl,3.43
2023-04-27T01:43:00,sdl,3.13
2023-04-27T01:44:00,sdl,3.13
2023-04-27T01:45:00,sdl,3.18
2023-04-27T01:46:00,sdl,3.12
2023-04-27T01:47:00,sdl,3.22
2023-04-27T01:48:00,sdl,3.41
2023-04-27T01:49:00,sdl,3.75
2023-04-27T01:50:00,sdl,3.61
2023-04-27T01:51:00,sdl,3.59
2023-04-27T01:52:00,sdl,6.33
2023-04-27T01:53:00,sdl,6.22
2023-04-27T01:54:00,sdl,6.03
2023-04-27T01:55:00,sdl,6.12
2023-04-27T01:56:00,sdl,5.37
2023-04-27T01:57:00,sdl,5.44
2023-04-27T01:58:00,sdl,5.44
2023-04-27T01:59:00,sdl,5.40
2023-04-27T02:00:00,sdl,5.43
2023-04-27T02:01:00,sdl,5.06
2023-04-27T02:02:00,sdl,5.13
2023-04-27T02:03:00,sdl,5.34
2023-04-27T02:04:00,sdl,2.91
2023-04-27T02:05:00,sdl,2.83
2023-04-27T02:06:00,sdl,2.80
2023-04-27T02:07:00,sdl,2.79
2023-04-27T02:08:00,sdl,2.74
2023-04-27T02:09:00,sdl,3.09
2023-04-27T02:10:00,sdl,3.44
2023-04-27T02:11:00,sdl,2.73
2023-04-27T02:12:00,sdl,2.74
2023-04-27T02:13:00,sdl,2.77
2023-04-27T02:14:00,sdl,2.76
2023-04-27T02:15:00,sdl,2.77
2023-04-27T02:16:00,sdl,2.77
2023-04-27T02:17:00,sdl,2.73
2023-04-27T02:18:00,sdl,2.89
2023-04-27T02:19:00,sdl,2.59
2023-04-27T02:20:00,sdl,2.61
2023-04-27T02:21:00,sdl,2.58
2023-04-27T02:22:00,sdl,2.69
2023-04-27T02:23:00,sdl,2.61
2023-04-27T02:24:00,sdl,3.26
2023-04-27T02:25:00,sdl,2.71
2023-04-27T02:26:00,sdl,2.69
2023-04-27T02:27:00,sdl,3.48
2023-04-27T02:28:00,sdl,3.58
2023-04-27T02:29:00,sdl,3.53
2023-04-27T02:30:00,sdl,3.39
2023-04-27T02:31:00,sdl,2.88
2023-04-27T02:32:00,sdl,2.54
2023-04-27T02:33:00,sdl,2.59
2023-04-27T02:34:00,sdl,2.48
2023-04-27T02:35:00,sdl,4.73
2023-04-27T02:36:00,sdl,4.75
2023-04-27T02:37:00,sdl,4.69
2023-04-27T02:38:00,sdl,4.84
2023-04-27T02:39:00,sdl,4.95
2023-04-27T02:40:00,sdl,4.94
2023-04-27T02:41:00,sdl,4.92
2023-04-27T02:42:00,sdl,6.32
2023-04-27T02:43:00,sdl,6.50
2023-04-27T02:44:00,sdl,6.61
2023-04-27T02:45:00,sdl,6.67
2023-04-27T02:46:00,sdl,6.18
2023-04-27T02:47:00,sdl,6.11
2023-04-27T02:48:00,sdl,6.11
2023-04-27T02:49:00,sdl,6.13
2023-04-27T02:50:00,sdl,3.85
2023-04-27T02:51:00,sdl,3.91
2023-04-27T02:52:00,sdl,3.79
2023-04-27T02:53:00,sdl,3.88
2023-04-27T02:54:00,sdl,3.95
2023-04-27T02:55:00,sdl,4.25
2023-04-27T02:56:00,sdl,4.15
2023-04-27T02:57:00,sdl,3.88
2023-04-27T02:58:00,sdl,3.87
2023-04-27T02:59:00,sdl,3.85
2023-04-27T03:00:00,sdl,3.72
2023-04-27T03:01:00,sdl,3.60
2023-04-27T03:02:00,sdl,3.79
2023-04-27T03:03:00,sdl,3.77
2023-04-27T03:04:00,sdl,4.62
2023-04-27T03:05:00,sdl,4.66
2023-04-27T03:06:00,sdl,4.64
2023-04-27T03:07:00,sdl,4.09
2023-04-27T03:08:00,sdl,3.99
2023-04-27T03:09:00,sdl,3.96
2023-04-27T03:10:00,sdl,3.71
2023-04-27T03:11:00,sdl,3.78
2023-04-27T03:12:00,sdl,3.75
2023-04-27T03:13:00,sdl,5.95
2023-04-27T03:14:00,sdl,5.88
2023-04-27T03:15:00,sdl,5.99
2023-04-27T03:16:00,sdl,6.07
2023-04-27T03:17:00,sdl,6.53
2023-04-27T03:18:00,sdl,6.52
2023-04-27T03:19:00,sdl,6.13
2023-04-27T03:20:00,sdl,6.15
2023-04-27T03:21:00,sdl,6.18
2023-04-27T03:22:00,sdl,6.21
2023-04-27T03:23:00,sdl,4.06
2023-04-27T03:24:00,sdl,3.88
2023-04-27T03:25:00,sdl,3.85
2023-04-27T03:26:00,sdl,3.84
2023-04-27T03:27:00,sdl,3.78
2023-04-27T03:28:00,sdl,4.40
2023-04-27T03:29:00,sdl,3.92
2023-04-27T03:30:00,sdl,4.24
2023-04-27T03:31:00,sdl,3.90
2023-04-27T03:32:00,sdl,3.92
2023-04-27T03:33:00,sdl,3.93
2023-04-27T03:34:00,sdl,3.93
2023-04-27T03:35:00,sdl,4.12
2023-04-27T03:36:00,sdl,4.02
2023-04-27T03:37:00,sdl,4.20
2023-04-27T03:38:00,sdl,4.00
2023-04-27T03:39:00,sdl,4.03
2023-04-27T03:40:00,sdl,3.97
2023-04-27T03:41:00,sdl,3.97
2023-04-27T03:42:00,sdl,6.16
2023-04-27T03:43:00,sdl,6.79
2023-04-27T03:44:00,sdl,7.00
2023-04-27T03:45:00,sdl,6.80
2023-04-27T03:46:00,sdl,6.85
2023-04-27T03:47:00,sdl,6.82
2023-04-27T03:48:00,sdl,6.07
2023-04-27T03:49:00,sdl,6.04
2023-04-27T03:50:00,sdl,6.70
2023-04-27T03:51:00,sdl,6.43
2023-04-27T03:52:00,sdl,6.52
2023-04-27T03:53:00,sdl,6.16
2023-04-27T03:54:00,sdl,6.19
2023-04-27T03:55:00,sdl,6.19
2023-04-27T03:56:00,sdl,6.22
2023-04-27T03:57:00,sdl,6.27
2023-04-27T03:58:00,sdl,6.24
2023-04-27T03:59:00,sdl,4.07
2023-04-27T04:00:00,sdl,4.07
2023-04-27T04:01:00,sdl,4.03
2023-04-27T04:02:00,sdl,4.11
2023-04-27T04:03:00,sdl,4.12
2023-04-27T04:04:00,sdl,4.35
2023-04-27T04:05:00,sdl,4.15
2023-04-27T04:06:00,sdl,4.14
2023-04-27T04:07:00,sdl,4.06
2023-04-27T04:08:00,sdl,4.20
2023-04-27T04:09:00,sdl,4.19
2023-04-27T04:10:00,sdl,4.29
2023-04-27T04:11:00,sdl,4.30
2023-04-27T04:12:00,sdl,4.32
2023-04-27T04:13:00,sdl,4.26
2023-04-27T04:14:00,sdl,4.25
2023-04-27T04:15:00,sdl,4.24
2023-04-27T04:16:00,sdl,4.26
2023-04-27T04:17:00,sdl,4.28
2023-04-27T04:18:00,sdl,4.43
2023-04-27T04:19:00,sdl,4.90
2023-04-27T04:20:00,sdl,4.12
2023-04-27T04:21:00,sdl,5.25
2023-04-27T04:22:00,sdl,4.03
2023-04-27T04:23:00,sdl,3.90
2023-04-27T04:24:00,sdl,3.95
2023-04-27T04:25:00,sdl,3.94
2023-04-27T04:26:00,sdl,3.87
2023-04-27T04:27:00,sdl,5.14
2023-04-27T04:28:00,sdl,6.31
2023-04-27T04:29:00,sdl,5.39
2023-04-27T04:30:00,sdl,4.93
2023-04-27T04:31:00,sdl,4.45
2023-04-27T04:32:00,sdl,4.49
2023-04-27T04:33:00,sdl,4.00
2023-04-27T04:34:00,sdl,4.58
2023-04-27T04:35:00,sdl,4.03
2023-04-27T04:36:00,sdl,6.31
2023-04-27T04:37:00,sdl,6.18
2023-04-27T04:38:00,sdl,6.08
2023-04-27T04:39:00,sdl,6.08
2023-04-27T04:40:00,sdl,6.09
2023-04-27T04:41:00,sdl,6.07
2023-04-27T04:42:00,sdl,6.04
2023-04-27T04:43:00,sdl,6.11
2023-04-27T04:44:00,sdl,6.09
2023-04-27T04:45:00,sdl,6.24
2023-04-27T04:46:00,sdl,6.02
2023-04-27T04:47:00,sdl,6.67
2023-04-27T04:48:00,sdl,6.04
2023-04-27T04:49:00,sdl,3.89
2023-04-27T04:50:00,sdl,3.92
2023-04-27T04:51:00,sdl,3.92
2023-04-27T04:52:00,sdl,3.99
2023-04-27T04:53:00,sdl,3.99
2023-04-27T04:54:00,sdl,3.94
2023-04-27T04:55:00,sdl,4.57
2023-04-27T04:56:00,sdl,4.63
2023-04-27T04:57:00,sdl,4.66
2023-04-27T04:58:00,sdl,4.72
2023-04-27T04:59:00,sdl,4.64
2023-04-27T05:00:00,sdl,5.15
2023-04-27T05:01:00,sdl,5.22
2023-04-27T05:02:00,sdl,3.84
2023-04-27T05:03:00,sdl,4.18
2023-04-27T05:04:00,sdl,4.19
2023-04-27T05:05:00,sdl,3.80
2023-04-27T05:06:00,sdl,3.79
2023-04-27T05:07:00,sdl,3.92
2023-04-27T05:08:00,sdl,3.94
2023-04-27T05:09:00,sdl,3.87
2023-04-27T05:10:00,sdl,3.80
2023-04-27T05:11:00,sdl,4.60
2023-04-27T05:12:00,sdl,4.58
2023-04-27T05:13:00,sdl,4.74
2023-04-27T05:14:00,sdl,4.54
2023-04-27T05:15:00,sdl,3.86
2023-04-27T05:16:00,sdl,4.55
2023-04-27T05:17:00,sdl,3.84
2023-04-27T05:18:00,sdl,3.80
2023-04-27T05:19:00,sdl,3.74
2023-04-27T05:20:00,sdl,3.75
2023-04-27T05:21:00,sdl,3.81
2023-04-27T05:22:00,sdl,4.21
2023-04-27T05:23:00,sdl,3.88
2023-04-27T05:24:00,sdl,6.06
2023-04-27T05:25:00,sdl,6.02
2023-04-27T05:26:00,sdl,6.01
2023-04-27T05:27:00,sdl,5.99
2023-04-27T05:28:00,sdl,6.72
2023-04-27T05:29:00,sdl,6.05
2023-04-27T05:30:00,sdl,6.06
2023-04-27T05:31:00,sdl,6.09
2023-04-27T05:32:00,sdl,5.93
2023-04-27T05:33:00,sdl,5.98
2023-04-27T05:34:00,sdl,5.83
2023-04-27T05:35:00,sdl,5.96
2023-04-27T05:36:00,sdl,5.94
2023-04-27T05:37:00,sdl,6.49
2023-04-27T05:38:00,sdl,5.81
2023-04-27T05:39:00,sdl,5.90
2023-04-27T05:40:00,sdl,5.79
2023-04-27T05:41:00,sdl,4.27
2023-04-27T05:42:00,sdl,4.06
2023-04-27T05:43:00,sdl,3.73
2023-04-27T05:44:00,sdl,3.85
2023-04-27T05:45:00,sdl,4.00
2023-04-27T05:46:00,sdl,3.97
2023-04-27T05:47:00,sdl,3.88
2023-04-27T05:48:00,sdl,3.94
2023-04-27T05:49:00,sdl,3.97
2023-04-27T05:50:00,sdl,3.91
2023-04-27T05:51:00,sdl,3.85
2023-04-27T05:52:00,sdl,3.93
2023-04-27T05:53:00,sdl,3.92
2023-04-27T05:54:00,sdl,4.69
2023-04-27T05:55:00,sdl,4.96
2023-04-27T05:56:00,sdl,4.76
2023-04-27T05:57:00,sdl,4.68
2023-04-27T05:58:00,sdl,3.88
2023-04-27T05:59:00,sdl,6.16
2023-04-27T06:00:00,sdl,6.13
2023-04-27T06:01:00,sdl,6.13
2023-04-27T06:02:00,sdl,6.16
2023-04-27T06:03:00,sdl,6.20
2023-04-27T06:04:00,sdl,6.10
2023-04-27T06:05:00,sdl,6.12
2023-04-27T06:06:00,sdl,6.14
2023-04-27T06:07:00,sdl,6.19
2023-04-27T06:08:00,sdl,6.20
2023-04-27T06:09:00,sdl,4.19
2023-04-27T06:10:00,sdl,4.06
2023-04-27T06:11:00,sdl,4.02
2023-04-27T06:12:00,sdl,4.06
2023-04-27T06:13:00,sdl,3.75
2023-04-27T06:14:00,sdl,3.60
2023-04-27T06:15:00,sdl,3.80
2023-04-27T06:16:00,sdl,4.11
2023-04-27T06:17:00,sdl,4.15
2023-04-27T06:18:00,sdl,3.83
2023-04-27T06:19:00,sdl,3.74
2023-04-27T06:20:00,sdl,4.38
2023-04-27T06:21:00,sdl,3.93
2023-04-27T06:22:00,sdl,3.91
2023-04-27T06:23:00,sdl,4.09
2023-04-27T06:24:00,sdl,3.89
2023-04-27T06:25:00,sdl,4.20
2023-04-27T06:26:00,sdl,3.81
2023-04-27T06:27:00,sdl,3.69
2023-04-27T06:28:00,sdl,3.78
2023-04-27T06:29:00,sdl,3.79
2023-04-27T06:30:00,sdl,3.77
2023-04-27T06:31:00,sdl,3.71
2023-04-27T06:32:00,sdl,5.94
2023-04-27T06:33:00,sdl,5.94
2023-04-27T06:34:00,sdl,6.03
2023-04-27T06:35:00,sdl,5.92
2023-04-27T06:36:00,sdl,5.94
2023-04-27T06:37:00,sdl,6.13
2023-04-27T06:38:00,sdl,6.79
2023-04-27T06:39:00,sdl,6.64
2023-04-27T06:40:00,sdl,6.63
2023-04-27T06:41:00,sdl,7.27
2023-04-27T06:42:00,sdl,6.44
2023-04-27T06:43:00,sdl,6.01
2023-04-27T06:44:00,sdl,5.95
2023-04-27T06:45:00,sdl,5.96
2023-04-27T06:46:00,sdl,3.82
2023-04-27T06:47:00,sdl,3.88
2023-04-27T06:48:00,sdl,3.88
2023-04-27T06:49:00,sdl,3.85
2023-04-27T06:50:00,sdl,3.89
2023-04-27T06:51:00,sdl,3.92
2023-04-27T06:52:00,sdl,3.74
2023-04-27T06:53:00,sdl,3.73
2023-04-27T06:54:00,sdl,3.67
2023-04-27T06:55:00,sdl,3.73
2023-04-27T06:56:00,sdl,4.06
2023-04-27T06:57:00,sdl,4.54
2023-04-27T06:58:00,sdl,3.90
2023-04-27T06:59:00,sdl,3.84
2023-04-27T07:00:00,sdl,3.93
2023-04-27T07:01:00,sdl,3.86
2023-04-27T07:02:00,sdl,3.78
2023-04-27T07:03:00,sdl,3.80
2023-04-27T07:04:00,sdl,4.00
2023-04-27T07:05:00,sdl,3.77
2023-04-27T07:06:00,sdl,3.71
2023-04-27T07:07:00,sdl,3.73
2023-04-27T07:08:00,sdl,3.82
2023-04-27T07:09:00,sdl,3.87
2023-04-27T07:10:00,sdl,3.91
2023-04-27T07:11:00,sdl,3.92
2023-04-27T07:12:00,sdl,3.92
2023-04-27T07:13:00,sdl,3.94
2023-04-27T07:14:00,sdl,3.99
2023-04-27T07:15:00,sdl,6.12
2023-04-27T07:16:00,sdl,6.08
2023-04-27T07:17:00,sdl,6.08
2023-04-27T07:18:00,sdl,6.29
2023-04-27T07:19:00,sdl,5.92
2023-04-27T07:20:00,sdl,5.94
2023-04-27T07:21:00,sdl,5.92
2023-04-27T07:22:00,sdl,6.09
2023-04-27T07:23:00,sdl,6.75
2023-04-27T07:24:00,sdl,6.08
2023-04-27T07:25:00,sdl,6.76
2023-04-27T07:26:00,sdl,7.23
2023-04-27T07:27:00,sdl,7.23
2023-04-27T07:28:00,sdl,7.67
2023-04-27T07:29:00,sdl,5.85
2023-04-27T07:30:00,sdl,5.82
2023-04-27T07:31:00,sdl,6.06
2023-04-27T07:32:00,sdl,5.88
2023-04-27T07:33:00,sdl,3.69
2023-04-27T07:34:00,sdl,4.36
2023-04-27T07:35:00,sdl,3.87
2023-04-27T07:36:00,sdl,3.93
2023-04-27T07:37:00,sdl,3.89
2023-04-27T07:38:00,sdl,3.92
2023-04-27T07:39:00,sdl,8.12
2023-04-27T07:40:00,sdl,3.82
2023-04-27T07:41:00,sdl,3.70
2023-04-27T07:42:00,sdl,4.26
2023-04-27T07:43:00,sdl,4.26
2023-04-27T07:44:00,sdl,3.87
2023-04-27T07:45:00,sdl,3.78
2023-04-27T07:46:00,sdl,3.78
2023-04-27T07:47:00,sdl,3.73
2023-04-27T07:48:00,sdl,3.77
2023-04-27T07:49:00,sdl,4.17
2023-04-27T07:50:00,sdl,3.69
2023-04-27T07:51:00,sdl,3.55
2023-04-27T07:52:00,sdl,3.61
2023-04-27T07:53:00,sdl,5.02
2023-04-27T07:54:00,sdl,6.33
2023-04-27T07:55:00,sdl,7.96
2023-04-27T07:56:00,sdl,8.44
2023-04-27T07:57:00,sdl,8.38
2023-04-27T07:58:00,sdl,8.29
2023-04-27T07:59:00,sdl,10.60
2023-04-27T08:00:00,sdl,9.88
2023-04-27T08:01:00,sdl,10.02
2023-04-27T08:02:00,sdl,10.46
2023-04-27T08:03:00,sdl,10.50
2023-04-27T08:04:00,sdl,10.58
2023-04-27T08:05:00,sdl,10.38
2023-04-27T08:06:00,sdl,10.26
2023-04-27T08:07:00,sdl,10.37
2023-04-27T08:08:00,sdl,10.87
2023-04-27T08:09:00,sdl,8.17
2023-04-27T08:10:00,sdl,8.30
2023-04-27T08:11:00,sdl,7.59
2023-04-27T08:12:00,sdl,7.69
2023-04-27T08:13:00,sdl,7.70
2023-04-27T08:14:00,sdl,7.71
2023-04-27T08:15:00,sdl,6.89
2023-04-27T08:16:00,sdl,6.84
2023-04-27T08:17:00,sdl,6.95
2023-04-27T08:18:00,sdl,7.44
2023-04-27T08:19:00,sdl,6.97
2023-04-27T08:20:00,sdl,6.94
2023-04-27T08:21:00,sdl,6.91
2023-04-27T08:22:00,sdl,6.88
2023-04-27T08:23:00,sdl,7.15
2023-04-27T08:24:00,sdl,6.85
2023-04-27T08:25:00,sdl,9.04
2023-04-27T08:26:00,sdl,9.09
2023-04-27T08:27:00,sdl,9.19
2023-04-27T08:28:00,sdl,9.18
2023-04-27T08:29:00,sdl,9.19
2023-04-27T08:30:00,sdl,9.17
2023-04-27T08:31:00,sdl,9.19
2023-04-27T08:32:00,sdl,9.25
2023-04-27T08:33:00,sdl,9.22
2023-04-27T08:34:00,sdl,9.25
2023-04-27T08:35:00,sdl,9.42
2023-04-27T08:36:00,sdl,9.55
2023-04-27T08:37:00,sdl,9.58
2023-04-27T08:38:00,sdl,9.34
2023-04-27T08:39:00,sdl,9.33
2023-04-27T08:40:00,sdl,9.49
2023-04-27T08:41:00,sdl,9.70
2023-04-27T08:42:00,sdl,8.54
2023-04-27T08:43:00,sdl,8.44
2023-04-27T08:44:00,sdl,7.80
2023-04-27T08:45:00,sdl,8.20
2023-04-27T08:46:00,sdl,8.34
2023-04-27T08:47:00,sdl,7.89
2023-04-27T08:48:00,sdl,7.83
2023-04-27T08:49:00,sdl,7.99
2023-04-27T08:50:00,sdl,8.32
2023-04-27T08:51:00,sdl,8.15
2023-04-27T08:52:00,sdl,8.23
2023-04-27T08:53:00,sdl,8.16
2023-04-27T08:54:00,sdl,9.19
2023-04-27T08:55:00,sdl,9.05
2023-04-27T08:56:00,sdl,9.63
2023-04-27T08:57:00,sdl,9.04
2023-04-27T08:58:00,sdl,8.32
2023-04-27T08:59:00,sdl,8.29
2023-04-27T09:00:00,sdl,8.00
2023-04-27T09:01:00,sdl,8.21
2023-04-27T09:02:00,sdl,8.37
2023-04-27T09:03:00,sdl,8.30
2023-04-27T09:04:00,sdl,7.90
2023-04-27T09:05:00,sdl,7.93
2023-04-27T09:06:00,sdl,7.99
2023-04-27T09:07:00,sdl,8.04
2023-04-27T09:08:00,sdl,7.86
2023-04-27T09:09:00,sdl,7.92
2023-04-27T09:10:00,sdl,5.01
2023-04-27T09:11:00,sdl,5.38
2023-04-27T09:12:00,sdl,5.00
2023-04-27T09:13:00,sdl,4.96
2023-04-27T09:14:00,sdl,5.16
2023-04-27T09:15:00,sdl,5.06
2023-04-27T09:16:00,sdl,5.15
2023-04-27T09:17:00,sdl,5.57
2023-04-27T09:18:00,sdl,7.04
2023-04-27T09:19:00,sdl,7.62
2023-04-27T09:20:00,sdl,7.39
2023-04-27T09:21:00,sdl,7.38
2023-04-27T09:22:00,sdl,8.27
2023-04-27T09:23:00,sdl,8.32
2023-04-27T09:24:00,sdl,8.33
2023-04-27T09:25:00,sdl,8.28
2023-04-27T09:26:00,sdl,8.31
2023-04-27T09:27:00,sdl,8.42
2023-04-27T09:28:00,sdl,9.03
2023-04-27T09:29:00,sdl,8.43
2023-04-27T09:30:00,sdl,8.14
2023-04-27T09:31:00,sdl,6.15
2023-04-27T09:32:00,sdl,6.41
2023-04-27T09:33:00,sdl,6.04
2023-04-27T09:34:00,sdl,5.98
2023-04-27T09:35:00,sdl,6.67
2023-04-27T09:36:00,sdl,7.44
2023-04-27T09:37:00,sdl,8.03
2023-04-27T09:38:00,sdl,7.97
2023-04-27T09:39:00,sdl,11.75
2023-04-27T09:40:00,sdl,12.17
2023-04-27T09:41:00,sdl,11.37
2023-04-27T09:42:00,sdl,11.45
2023-04-27T09:43:00,sdl,11.39
2023-04-27T09:44:00,sdl,11.20
2023-04-27T09:45:00,sdl,12.28
2023-04-27T09:46:00,sdl,11.91
2023-04-27T09:47:00,sdl,12.10
2023-04-27T09:48:00,sdl,12.34
2023-04-27T09:49:00,sdl,12.20
2023-04-27T09:50:00,sdl,12.33
2023-04-27T09:51:00,sdl,12.77
2023-04-27T09:52:00,sdl,12.16
2023-04-27T09:53:00,sdl,12.71
2023-04-27T09:54:00,sdl,12.78
2023-04-27T09:55:00,sdl,12.36
2023-04-27T09:56:00,sdl,12.41
2023-04-27T09:57:00,sdl,12.26
2023-04-27T09:58:00,sdl,11.30
2023-04-27T09:59:00,sdl,13.15
2023-04-27T10:00:00,sdl,13.20
2023-04-27T10:01:00,sdl,13.17
2023-04-27T10:02:00,sdl,11.36
2023-04-27T10:03:00,sdl,11.39
2023-04-27T10:04:00,sdl,13.77
2023-04-27T10:05:00,sdl,14.80
2023-04-27T10:06:00,sdl,14.71
2023-04-27T10:07:00,sdl,14.67
2023-04-27T10:08:00,sdl,14.68
2023-04-27T10:09:00,sdl,14.66
2023-04-27T10:10:00,sdl,14.67
2023-04-27T10:11:00,sdl,14.51
2023-04-27T10:12:00,sdl,14.05
2023-04-27T10:13:00,sdl,14.34
2023-04-27T10:14:00,sdl,14.12
2023-04-27T10:15:00,sdl,14.08
2023-04-27T10:16:00,sdl,14.00
2023-04-27T10:17:00,sdl,14.08
2023-04-27T10:18:00,sdl,14.38
2023-04-27T10:19:00,sdl,13.89
2023-04-27T10:20:00,sdl,14.01
2023-04-27T10:21:00,sdl,14.86
2023-04-27T10:22:00,sdl,13.90
2023-04-27T10:23:00,sdl,12.22
2023-04-27T10:24:00,sdl,12.35
2023-04-27T10:25:00,sdl,12.75
2023-04-27T10:26:00,sdl,12.52
2023-04-27T10:27:00,sdl,12.40
2023-04-27T10:28:00,sdl,12.32
2023-04-27T10:29:00,sdl,12.49
2023-04-27T10:30:00,sdl,12.72
2023-04-27T10:31:00,sdl,12.36
2023-04-27T10:32:00,sdl,12.50
2023-04-27T10:33:00,sdl,12.36
2023-04-27T10:34:00,sdl,11.35
2023-04-27T10:35:00,sdl,11.22
2023-04-27T10:36:00,sdl,11.29
2023-04-27T10:37:00,sdl,11.35
2023-04-27T10:38:00,sdl,11.67
2023-04-27T10:39:00,sdl,13.26
2023-04-27T10:40:00,sdl,13.32
2023-04-27T10:41:00,sdl,13.22
2023-04-27T10:42:00,sdl,13.22
2023-04-27T10:43:00,sdl,13.82
2023-04-27T10:44:00,sdl,15.62
2023-04-27T10:45:00,sdl,15.78
2023-04-27T10:46:00,sdl,15.86
2023-04-27T10:47:00,sdl,15.67
2023-04-27T10:48:00,sdl,15.55
2023-04-27T10:49:00,sdl,15.53
2023-04-27T10:50:00,sdl,13.23
2023-04-27T10:51:00,sdl,13.23
2023-04-27T10:52:00,sdl,11.97
2023-04-27T10:53:00,sdl,11.74
2023-04-27T10:54:00,sdl,11.03
2023-04-27T10:55:00,sdl,10.95
2023-04-27T10:56:00,sdl,11.71
2023-04-27T10:57:00,sdl,10.94
2023-04-27T10:58:00,sdl,11.02
2023-04-27T10:59:00,sdl,11.37
2023-04-27T11:00:00,sdl,11.30
2023-04-27T11:01:00,sdl,10.65
2023-04-27T11:02:00,sdl,11.30
2023-04-27T11:03:00,sdl,11.33
2023-04-27T11:04:00,sdl,11.79
2023-04-27T11:05:00,sdl,11.41
2023-04-27T11:06:00,sdl,14.03
2023-04-27T11:07:00,sdl,13.99
2023-04-27T11:08:00,sdl,13.84
2023-04-27T11:09:00,sdl,13.87
2023-04-27T11:10:00,sdl,13.67
2023-04-27T11:11:00,sdl,12.86
2023-04-27T11:12:00,sdl,12.68
2023-04-27T11:13:00,sdl,11.99
2023-04-27T11:14:00,sdl,12.50
2023-04-27T11:15:00,sdl,12.81
2023-04-27T11:16:00,sdl,12.79
2023-04-27T11:17:00,sdl,12.34
2023-04-27T11:18:00,sdl,12.44
2023-04-27T11:19:00,sdl,13.79
2023-04-27T11:20:00,sdl,13.38
2023-04-27T11:21:00,sdl,13.01
2023-04-27T11:22:00,sdl,12.84
2023-04-27T11:23:00,sdl,13.10
2023-04-27T11:24:00,sdl,13.18
2023-04-27T11:25:00,sdl,13.56
2023-04-27T11:26:00,sdl,13.26
2023-04-27T11:27:00,sdl,13.29
2023-04-27T11:28:00,sdl,13.20
2023-04-27T11:29:00,sdl,10.11
2023-04-27T11:30:00,sdl,10.18
2023-04-27T11:31:00,sdl,10.13
2023-04-27T11:32:00,sdl,11.07
2023-04-27T11:33:00,sdl,10.01
2023-04-27T11:34:00,sdl,10.17
2023-04-27T11:35:00,sdl,11.43
2023-04-27T11:36:00,sdl,10.51
2023-04-27T11:37:00,sdl,10.12
2023-04-27T11:38:00,sdl,10.06
2023-04-27T11:39:00,sdl,10.85
2023-04-27T11:40:00,sdl,10.88
2023-04-27T11:41:00,sdl,10.80
2023-04-27T11:42:00,sdl,10.82
2023-04-27T11:43:00,sdl,10.88
2023-04-27T11:44:00,sdl,10.83
2023-04-27T11:45:00,sdl,10.95
2023-04-27T11:46:00,sdl,11.66
2023-04-27T11:47:00,sdl,10.88
2023-04-27T11:48:00,sdl,11.18
2023-04-27T11:49:00,sdl,9.94
2023-04-27T11:50:00,sdl,9.97
2023-04-27T11:51:00,sdl,9.89
2023-04-27T11:52:00,sdl,11.19
2023-04-27T11:53:00,sdl,10.64
2023-04-27T11:54:00,sdl,9.95
2023-04-27T11:55:00,sdl,10.51
2023-04-27T11:56:00,sdl,10.35
2023-04-27T11:57:00,sdl,12.76
2023-04-27T11:58:00,sdl,12.07
2023-04-27T11:59:00,sdl,13.30
2023-04-27T12:00:00,sdl,13.11
2023-04-27T12:01:00,sdl,13.11
2023-04-27T12:02:00,sdl,13.35
2023-04-27T12:03:00,sdl,13.18
2023-04-27T12:04:00,sdl,12.84
2023-04-27T12:05:00,sdl,14.18
2023-04-27T12:06:00,sdl,13.15
2023-04-27T12:07:00,sdl,13.47
2023-04-27T12:08:00,sdl,13.56
2023-04-27T12:09:00,sdl,12.41
2023-04-27T12:10:00,sdl,13.00
2023-04-27T12:11:00,sdl,10.88
2023-04-27T12:12:00,sdl,10.94
2023-04-27T12:13:00,sdl,10.96
2023-04-27T12:14:00,sdl,11.07
2023-04-27T12:15:00,sdl,11.16
2023-04-27T12:16:00,sdl,11.24
2023-04-27T12:17:00,sdl,11.65
2023-04-27T12:18:00,sdl,10.90
2023-04-27T12:19:00,sdl,11.11
2023-04-27T12:20:00,sdl,11.76
2023-04-27T12:21:00,sdl,11.05
2023-04-27T12:22:00,sdl,10.87
2023-04-27T12:23:00,sdl,11.02
2023-04-27T12:24:00,sdl,11.00
2023-04-27T12:25:00,sdl,11.13
2023-04-27T12:26:00,sdl,13.29
2023-04-27T12:27:00,sdl,12.23
2023-04-27T12:28:00,sdl,12.41
2023-04-27T12:29:00,sdl,12.25
2023-04-27T12:30:00,sdl,12.60
2023-04-27T12:31:00,sdl,11.98
2023-04-27T12:32:00,sdl,14.40
2023-04-27T12:33:00,sdl,11.81
2023-04-27T12:34:00,sdl,13.31
2023-04-27T12:35:00,sdl,12.83
2023-04-27T12:36:00,sdl,12.94
2023-04-27T12:37:00,sdl,11.99
2023-04-27T12:38:00,sdl,10.79
2023-04-27T12:39:00,sdl,10.80
2023-04-27T12:40:00,sdl,10.28
2023-04-27T12:41:00,sdl,10.87
2023-04-27T12:42:00,sdl,10.67
2023-04-27T12:43:00,sdl,12.48
2023-04-27T12:44:00,sdl,11.69
2023-04-27T12:45:00,sdl,11.21
2023-04-27T12:46:00,sdl,10.89
2023-04-27T12:47:00,sdl,6.88
2023-04-27T12:48:00,sdl,6.96
2023-04-27T12:49:00,sdl,7.45
2023-04-27T12:50:00,sdl,6.93
2023-04-27T12:51:00,sdl,7.00
2023-04-27T12:52:00,sdl,7.29
2023-04-27T12:53:00,sdl,6.93
2023-04-27T12:54:00,sdl,9.17
2023-04-27T12:55:00,sdl,7.53
2023-04-27T12:56:00,sdl,7.09
2023-04-27T12:57:00,sdl,9.22
2023-04-27T12:58:00,sdl,10.17
2023-04-27T12:59:00,sdl,10.07
2023-04-27T13:00:00,sdl,10.01
2023-04-27T13:01:00,sdl,9.99
2023-04-27T13:02:00,sdl,9.95
2023-04-27T13:03:00,sdl,9.98
2023-04-27T13:04:00,sdl,9.18
2023-04-27T13:05:00,sdl,9.26
2023-04-27T13:06:00,sdl,10.34
2023-04-27T13:07:00,sdl,11.51
2023-04-27T13:08:00,sdl,9.29
2023-04-27T13:09:00,sdl,9.37
2023-04-27T13:10:00,sdl,9.98
2023-04-27T13:11:00,sdl,9.25
2023-04-27T13:12:00,sdl,10.47
2023-04-27T13:13:00,sdl,12.14
2023-04-27T13:14:00,sdl,12.08
2023-04-27T13:15:00,sdl,12.70
2023-04-27T13:16:00,sdl,10.71
2023-04-27T13:17:00,sdl,10.41
2023-04-27T13:18:00,sdl,11.75
2023-04-27T13:19:00,sdl,12.31
2023-04-27T13:20:00,sdl,12.96
2023-04-27T13:21:00,sdl,13.02
2023-04-27T13:22:00,sdl,12.54
2023-04-27T13:23:00,sdl,11.90
2023-04-27T13:24:00,sdl,10.74
2023-04-27T13:25:00,sdl,10.17
2023-04-27T13:26:00,sdl,10.73
2023-04-27T13:27:00,sdl,8.77
2023-04-27T13:28:00,sdl,9.64
2023-04-27T13:29:00,sdl,9.81
2023-04-27T13:30:00,sdl,10.52
2023-04-27T13:31:00,sdl,10.43
2023-04-27T13:32:00,sdl,10.40
2023-04-27T13:33:00,sdl,11.49
2023-04-27T13:34:00,sdl,11.40
2023-04-27T13:35:00,sdl,11.48
2023-04-27T13:36:00,sdl,10.39
2023-04-27T13:37:00,sdl,10.95
2023-04-27T13:38:00,sdl,13.62